Regional Weather Roundup
Issued by NWS Little Rock, AR

Home | Current Version | Previous Version | Graphics & Text | Print | Product List | Glossary On
Versions: 1 2 3 4 5 6 7 8 9 10 11 12 13 14 15 16 17 18 19 20 21 22 23 24 25 26 27 28 29 30 31 32 33 34 35 36 37 38 39 40 41 42 43 44 45 46 47 48 49 50
000
ASUS44 KLZK 071105
RWRLZK

WEATHER ROUNDUP FOR ARKANSAS
NATIONAL WEATHER SERVICE LITTLE ROCK AR
600 AM CDT TUE JUL 07 2015

NOTE: "FAIR" INDICATES FEW OR NO CLOUDS BELOW 12,000 FEET WITH NO
SIGNIFICANT WEATHER AND/OR OBSTRUCTIONS TO VISIBILITY.

ARZ001-003-010-029-071200-
NORTHWEST ARKANSAS

CITY           SKY/WX    TMP DP  RH WIND       PRES   REMARKS
FAYETTEVILLE   CLOUDY    76  71  85 S10       29.96R
FORT SMITH     CLOUDY    81  70  69 SW8       29.94R
HARRISON       CLOUDY    76  70  82 S8        29.97S
BENTONVILLE    CLOUDY    77  68  73 SW9       29.95F
ROGERS         CLOUDY    77  70  79 S15       29.96S
SILOAM SPGS    CLOUDY    75  66  73 S13       29.95F
HIGHFILL       LGT RAIN  76  72  87 SW10      29.94F
SPRINGDALE     CLOUDY    77  72  83 S13       29.97
$$

ARZ004-005-016-071200-
NORTH CENTRAL ARKANSAS

CITY           SKY/WX    TMP DP  RH WIND       PRES   REMARKS
BATESVILLE     PTCLDY    75  72  88 CALM      29.97S
FLIPPIN        MOCLDY    77  70  78 SW5       29.93S
MTN HOME       CLOUDY    76  71  85 S8        29.95R
$$

ARZ040-041-071200-
WEST CENTRAL ARKANSAS

CITY           SKY/WX    TMP DP  RH WIND       PRES   REMARKS
MENA           CLOUDY    77  72  83 SW8G18    30.00S
MOUNT IDA      PTCLDY    78  71  79 VRB5      29.98R
$$

ARZ009-017-025-026-028-071200-
NORTHEAST ARKANSAS

CITY           SKY/WX    TMP DP  RH WIND       PRES   REMARKS
JONESBORO      MOCLDY    76  74  93 SW9       29.97S
NEWPORT        MOCLDY    77  75  93 S12       29.98S
WALNUT RIDGE   CLOUDY    77  73  88 S12       29.96R
BLYTHEVILLE    CLEAR     77  75  93 SW12      29.99R
$$

ARZ022-023-033-042-044-071200-
CENTRAL ARKANSAS

CITY           SKY/WX    TMP DP  RH WIND       PRES   REMARKS
LITTLE ROCK    PTCLDY    76  71  85 S10       30.00R
N LITTLE ROCK    N/A     76  74  93 SW9       30.00R
JACKSONVILLE   CLEAR     77  73  87 SW6       29.99R
SEARCY         MOCLDY    76  73  91 S8        30.00R
HOT SPRINGS    PTCLDY    77  71  82 SW8       30.01R
RUSSELLVILLE   CLOUDY    77  72  84 S8        29.97R
CLINTON        FAIR      72  72 100 CALM      29.99R FOG
$$

ARZ036-071200-
EAST ARKANSAS

CITY           SKY/WX    TMP DP  RH WIND       PRES   REMARKS
WEST MEMPHIS   PTCLDY    74  74 100 S6        30.00S
$$

ARZ050-053-066-070-073-071200-
SOUTHWEST ARKANSAS

CITY           SKY/WX    TMP DP  RH WIND       PRES   REMARKS
ARKADELPHIA    FAIR      76  76 100 SW3       30.01R
CAMDEN         CLEAR     75  72  88 MISG      30.02R
TEXARKANA      CLOUDY    76  73  91 S10       30.00S
EL DORADO      CLEAR     74  72  93 S6        30.04R
DE QUEEN       CLOUDY    75  72  90 CALM      29.97S
$$

ARZ056-057-069-071200-
SOUTHEAST ARKANSAS

CITY           SKY/WX    TMP DP  RH WIND       PRES   REMARKS
PINE BLUFF     PTCLDY    75  73  93 S9        30.02R
STUTTGART      MOCLDY    75  72  88 MISG      30.00R
MONTICELLO     PTCLDY    76  76 100 S8        30.03R

$$





USA.gov is the U.S. government's official web portal to all federal, state and local government web resources and services.